Overview Statistics Trail Chart Weather Telemetry Raw packets
 

This is the latest recevied weather packets stored in our database for station/object EA7URS-13. If no packets are shown the sender has not sent any weather packets the latest 10 day(s).

<< 6 7 8 9 10 11 12 >>
Time Temp. Humidity Pressure Rain* Wind** Luminosity Snow
1788612123 31.11° C 53% 1011.8 hPa 0 mm - 135 W/m² -
1788611821 30.56° C 55% 1011.9 hPa 0 mm - 104 W/m² -
1788611520 30.56° C 55% 1011.9 hPa 0 mm - 104 W/m² -
1788611219 30° C 56% 1011.9 hPa 0 mm - 86 W/m² -
1788610918 30° C 56% 1011.9 hPa 0 mm - 86 W/m² -
1788610616 30° C 56% 1011.7 hPa 0 mm - 104 W/m² -
1788610315 30° C 56% 1011.7 hPa 0 mm - 104 W/m² -
1788610014 30° C 57% 1012.1 hPa 0 mm - 102 W/m² -
1788609713 30° C 57% 1012.1 hPa 0 mm - 102 W/m² -
1788609412 30° C 58% 1012.3 hPa 0 mm - 115 W/m² -
1788609111 30° C 58% 1012.3 hPa 0 mm - 115 W/m² -
1788608810 29.44° C 61% 1012.4 hPa 0 mm - 132 W/m² -
1788608509 29.44° C 61% 1012.4 hPa 0 mm - 132 W/m² -
1788608207 29.44° C 62% 1012.5 hPa 0 mm - 114 W/m² -
1788607906 29.44° C 62% 1012.5 hPa 0 mm - 114 W/m² -
1788607605 30.56° C 58% 1012.5 hPa 0 mm - 142 W/m² -
1788607304 30.56° C 58% 1012.5 hPa 0 mm - 142 W/m² -
1788607003 30.56° C 58% 1012.5 hPa 0 mm - 163 W/m² -
1788606702 30.56° C 58% 1012.5 hPa 0 mm - 163 W/m² -
1788606401 30.56° C 56% 1012.5 hPa 0 mm - 226 W/m² -
1788606099 30.56° C 56% 1012.5 hPa 0 mm - 226 W/m² -
1788605799 30° C 57% 1012.5 hPa 0 mm - 273 W/m² -
1788605497 30° C 57% 1012.5 hPa 0 mm - 273 W/m² -
1788605196 30° C 59% 1012.7 hPa 0 mm - 185 W/m² -
1788604895 30° C 59% 1012.7 hPa 0 mm - 185 W/m² -

* Rain latest hour (hover to see other rain measurements)
** Current wind speed in m/s (hover to see current wind gust speed)